Location: Caltech
(34.1382°N, 118.1253°W)
Time: 01:05:51
(UTC-07:00)

Iridium 21 - Visible Passes

Search period start: 24 March 2017 00:00
Search period end: 03 April 2017 00:00
Orbit: 776 x 779 km, 86.4° (Epoch: 22 March)

Date Brightness Start Highest point End Pass type
(mag) Time Alt. Az. Time Alt. Az. Time Alt. Az.
24 Mar 8.6 04:51:38 10° ESE 04:54:23 15° E 04:57:08 10° NE visible
25 Mar 5.6 05:55:50 10° S 06:01:02 82° E 06:06:16 10° N visible
26 Mar 6.9 05:22:45 10° SSE 05:27:36 41° E 05:32:29 10° NNE visible
27 Mar 8.0 04:50:25 10° SE 04:54:19 22° E 04:58:13 10° NNE visible
28 Mar 8.7 04:19:51 10° E 04:21:08 11° ENE 04:22:23 10° ENE visible
28 Mar 5.5 05:55:59 10° S 06:01:09 67° W 06:06:20 10° N visible
29 Mar 6.0 05:22:31 10° S 05:27:39 63° E 05:32:48 10° N visible
30 Mar 7.3 04:49:42 10° SSE 04:54:17 32° E 04:58:52 10° NNE visible
31 Mar 8.3 04:17:48 10° ESE 04:21:01 17° E 04:24:15 10° NE visible
31 Mar 5.8 05:56:20 10° SSW 06:01:17 44° W 06:06:16 10° NNW visible
01 Apr 5.5 05:22:31 10° S 05:27:44 87° W 05:32:58 10° N visible
02 Apr 6.5 04:49:19 10° SSE 04:54:17 48° E 04:59:17 10° NNE visible
